Regional Weather Roundup
Issued by NWS Burlington, VT

Current Version | Previous Version | Text Only | Print | Product List | Glossary Off
Versions: 1 2 3 4 5 6 7 8 9 10 11 12 13 14 15 16 17 18 19 20 21 22 23 24 25 26 27 28 29 30 31 32 33 34 35 36 37 38 39 40 41 42 43 44 45 46 47 48 49 50

000
ASUS41 KBTV 180330
RWRBTV
VERMONT REGIONAL WEATHER ROUNDUP
NATIONAL WEATHER SERVICE BURLINGTON VT
1000 PM EST WED DEC 17 2014

NOTE: "FAIR" INDICATES FEW OR NO CLOUDS BELOW 12,000 FEET WITH NO
SIGNIFICANT WEATHER AND/OR OBSTRUCTIONS TO VISIBILITY.

* THESE REPORTS ARE NOT UNDER NWS QUALITY CONTROL AND/OR DO NOT
  REPORT WEATHER SUCH AS PRECIPITATION AND FOG.

VTZ001>019-180400-
_____VERMONT_____


CITY           SKY/WX    TMP DP  RH WIND       PRES   REMARKS
BURLINGTON     CLOUDY    36  33  89 CALM      29.77R FOG
MONTPELIER     CLOUDY    35  32  88 NW6       29.75S
MORRISVILLE    CLOUDY    34  32  92 CALM      29.75S
ST. JOHNSBURY*   N/A     34  33  96 MISG      29.70F
LYNDONVILLE*   DRIZZLE   35  33  93 W3        29.71S
MIDDLEBURY*    DRIZZLE   35  35 100 CALM      29.76F
RUTLAND*       CLOUDY    36  30  80 W5        29.77S
SPRINGFIELD    CLOUDY    37  32  82 S3        29.75R
HIGHGATE*      CLOUDY    33  33  98 CALM      29.77S FOG
NEWPORT*       MIX PCPN  33  32  96 CALM      29.72S
BENNINGTON     FLURRIES  33  30  88 SW9       29.82S
SUTTON*          N/A     34 N/A N/A MISG        N/A
MT. MANSFIELD*   N/A     27 N/A N/A CALM        N/A

_____LAKE CHAMPLAIN_____


CITY           SKY/WX    TMP DP  RH WIND       PRES   REMARKS
BURTON ISLAND*   N/A     36  36 100 NE1         N/A
COLCHESTER RF*   N/A     41  34  75 NW13        N/A

$$

NYZ007-026>031-035-052-083-180400-
_____NORTHERN NEW YORK_____


CITY           SKY/WX    TMP DP  RH WIND       PRES   REMARKS
PLATTSBURGH    CLOUDY    34  34 100 NW3       29.77S FOG
SARANAC LAKE   LGT SNOW  32  32 100 VRB7      29.72S
MASSENA        CLOUDY    34  32  92 W7        29.80S
OGDENSBURG*    RAIN      36  36 100 W5        29.81R
POTSDAM*       LGT RAIN  36  36 100 W12       29.79S
WATERTOWN      LGT RAIN  38  30  73 W15G24    29.85S
FT DRUM        LGT RAIN  35  32  91 W12       29.82S
ALBANY         LGT RAIN  37  29  72 W9        29.86S
GLENS FALLS    CLOUDY    36  31  82 S10       29.81S

$$
NHZ002-005-011-180400-
_____NEW HAMPSHIRE_____


CITY           SKY/WX    TMP DP  RH WIND       PRES   REMARKS
LEBANON        FOG       34  33  96 CALM      29.73S VSB 1
KEENE          CLOUDY    34  34 100 SW3       29.77R
MT WASHINGTON  SNOW      19  19 100 N36         N/A  VSB 0   WCI  -1
PLYMOUTH       CLOUDY    38  38  97 W6        29.70S
WHITEFIELD     LGT RAIN  34  33  96 CALM      29.70S

$$

_____REGIONAL QUEBEC LOCATIONS_____


CITY           SKY/WX    TMP DP  RH WIND       PRES   REMARKS
MONTREAL       LGT SNOW  32  32 100 NW3       29.77S VSB 5/8
QUEBEC CITY    FLURRIES  30  28  93 E9G20     29.77F
SHERBROOKE     LGT SNOW  32  32 100 SW3       29.71F

_____REGIONAL ONTARIO LOCATIONS_____


CITY           SKY/WX    TMP DP  RH WIND       PRES   REMARKS
OTTAWA         LGT SNOW  32  32 100 W8        29.78S FOG

______KEY______
VSB  - VISIBILITY IN MILES
WCI  - WIND CHILL INDEX
HX   - HEAT INDEX
$$



USA.gov is the U.S. government's official web portal to all federal, state and local government web resources and services.